User: anonymous   Login
Location: Vesunti
(61.5000°N, 22.8333°E)
Time: 17:56:34
(UTC+00:00)
Language:

Cosmos 1340 Rocket - Orbit

View from above orbital plane
View from above orbital plane
View from above satellite
View from above satellite

Ground track
Ground track

The orbit data is extracted from the following two-line orbital elements,

1 13068U 82013B   20151.90217130  .00000069  00000-0  29850-5 0  9998
2 13068  81.2030  70.4608 0022084 359.3164   0.8026 15.07424283 85988
Epoch (UTC): 30 May 2020 21:39:07
Eccentricity: 0.0022084
inclination: 81.2030°
perigee height: 529 km
apogee height: 559 km
right ascension of ascending node: 70.4608°
argument of perigee: 359.3164°
revolutions per day: 15.07424283
mean anomaly at epoch: 0.8026°
orbit number at epoch: 8598

The dashed part of the orbit path shows where the satellite is in the earth's shadow,  

DLR